Regional Weather Roundup
Issued by NWS

Home | Current Version | Previous Version | Graphics & Text | Print | Product List | Glossary On
Versions: 1 2 3 4 5 6 7 8 9 10 11 12 13 14 15 16 17 18 19 20 21 22 23 24 25 26 27 28 29 30 31 32 33 34 35 36 37 38 39 40 41 42 43 44 45 46 47 48 49 50
000
ASUS43 KFSD 201802
RWRSD

WEATHER ROUNDUP FOR SOUTH DAKOTA
NATIONAL WEATHER SERVICE SIOUX FALLS SD
100 PM CDT MON OCT 20 2014

NOTE: "FAIR" INDICATES FEW OR NO CLOUDS BELOW 12,000 FEET WITH NO
SIGNIFICANT WEATHER AND/OR OBSTRUCTIONS TO VISIBILITY.


SDZ001>005-009-010-012>017-201900-
NORTHWEST AND NORTH CENTRAL SOUTH DAKOTA

CITY           SKY/WX    TMP DP  RH WIND       PRES   REMARKS
FAITH            N/A     67  40  37 SE25      30.01F
MOBRIDGE       SUNNY     67  41  38 S14       30.04F
$$

SDZ012>016-024>037-041>051-057-063-072>074-201900-
SOUTHWEST AND SOUTH CENTRAL SOUTH DAKOTA

CITY           SKY/WX    TMP DP  RH WIND       PRES   REMARKS
RAPID CTY ARPT SUNNY     68  43  40 SE13      30.01F
PIERRE         SUNNY     70  39  32 SE13      30.06F
CUSTER         SUNNY     68  38  33 SW8       30.11F
ELLSWORTH AFB  SUNNY     68  45  42 S16       30.00F
PHILIP         SUNNY     72  43  35 SE14G22   30.03F
PINE RIDGE     SUNNY     73  43  33 S17G23    30.05F
SPEARFISH      FAIR      70  48  46 NE7       30.01F
WINNER         FAIR      72  37  28 S10       30.09F
$$

SDZ004>011-016>023-039-040-201900-
NORTHEAST SOUTH DAKOTA

CITY           SKY/WX    TMP DP  RH WIND       PRES   REMARKS
ABERDEEN       SUNNY     66  38  35 SW6       30.08F
WATERTOWN      SUNNY     65  41  41 NW9       30.07F
$$

SDZ017-020-022-023-036>040-048>070-201900-
SOUTHEAST SOUTH DAKOTA

CITY           SKY/WX    TMP DP  RH WIND       PRES   REMARKS
SIOUX FALLS    MOSUNNY   68  42  38 N14       30.07F
HURON          SUNNY     68  38  33 VRB3      30.09F
CHAMBERLAIN    SUNNY     68  38  33 SE6       30.09F
MITCHELL       SUNNY     68  39  34 SW5       30.10F
YANKTON        SUNNY     66  39  37 W3        30.10F
$$

ABBREVIATIONS USED IN REMARKS
   TC - TEMPERATURE IN CELSIUS
  WCI - WIND CHILL INDEX
   HX - HEAT INDEX
  VSB - VISIBILITY




USA.gov is the U.S. government's official web portal to all federal, state and local government web resources and services.